HGS 1 (ASIASAT 3)

导读

HGS-1(原名ASIASAT 3)是美国休斯公司制造的通信卫星,1997年12月24日发射后因火箭故障未能进入预定轨道,被判定全损赔付后更名。 技术团队大胆采用月球引力弹弓方案,经两次月球借力变轨,成功将卫星送入地球同步轨道,创造航天奇迹。卫星后续转由多家公司运营,最终于2002年退役。

基本信息
目录编号:
25126
目录名称:
HGS 1 (ASIASAT 3)
国际标识:
1997-086A
轨道中心:
EARTH
卫星名称:
HGS 1 (ASIASAT 3)
卫星全名:
--
卫星状态:
在轨 (已飞行10406 天)
发射日期:
1997-12-24 UTC
国别 :
美国 (US)
星等 :
--
轨道信息
数据来源 国际轨道数据 AOE轨道数据
星历时间 2026-06-20T06:58:54+0800
1天前
查看轨道信息
2026-06-21T08:00:00+0800
17小时前
查看轨道信息
半长轴 42163.327km 42163.943km
偏心率 0.0051174 0.0051199
轨道倾角 13.171° 13.173°
近地点辐角 48.358° 48.514°
升交点赤经 31.767° 31.758°
平近点角 138.654° 154.819°
近地点 35569.423km 35569.93km
远地点 36000.957km 36001.682km
周期 1436.025分钟 1436.057分钟
每日圈数 1.002768 1.002746
详细信息
使用方式:
暂无
2D轨道图
3D轨道图
轨道高度分析图
轨道倾角分析图
轨道综合分析图
查看轨道综合分析图